Wetbulb
66.06 64.76 64.41 63.22 62.77 64.27 66.35 67.01 66.48 65.69 64.87 65.24 65.05 64.09 63.31 62.58 62.82 62.14 61.45 61.83 61.92 61.91 62.92 63.99 64.67 64.45 64.21 64.89 64.76 63.57 63.73 61.78 57.91 57.55 58.59 58.92 58.65 58.61 59.13 59.59 60.11 60.02 60.73
64.87 64.47 63.41 63.17 63.89 64.84 65.79 65.42 65.33 64.63 65.42 65.11 64.41 63.72 62.66 62.22 61.31 59.75 59.39 59.94 60.08 60.37 61.00 62.74 63.09 64.30 62.31 61.89 61.71 60.16 61.16 60.87 59.62 56.82 57.09 56.78 57.07 57.95 57.81 57.69 58.15 58.72 58.76
63.63 63.70 63.45 64.32 64.77 64.42 64.12 64.33 64.69 64.08 63.65 63.64 63.74 63.23 62.42 62.02 59.55 58.45 58.55 58.40 58.56 58.81 59.91 61.02 61.56 61.73 60.22 59.72 58.67 58.71 59.22 60.24 59.85 57.56 55.44 56.58 56.58 56.90 56.26 56.74 56.96 57.32 57.67
61.87 62.12 62.73 63.32 64.49 63.73 64.12 63.79 63.33 62.97 62.19 61.97 62.20 61.92 62.04 62.57 61.48 59.20 57.64 57.27 57.44 57.90 59.05 60.16 60.62 60.35 59.73 58.47 57.53 58.97 59.61 58.76 58.17 56.76 55.74 55.48 56.02 56.42 56.44 55.08 54.60 55.53 55.03
60.61 61.36 62.36 64.02 64.05 64.19 63.98 63.56 63.53 62.59 61.99 61.81 59.59 58.25 59.28 61.73 62.68 60.05 58.40 56.96 56.88 57.38 57.68 59.20 60.51 63.10 62.69 60.50 57.50 55.28 58.25 57.96 57.25 56.40 55.36 55.30 55.13 55.13 55.14 55.75 54.15 54.06 53.80
61.73 62.82 64.70 65.23 63.88 63.63 63.81 63.91 63.94 63.07 62.22 61.46 57.88 57.47 58.03 59.94 58.96 60.72 60.25 57.69 57.73 57.10 56.24 56.60 57.69 59.16 61.02 61.01 60.25 58.83 57.00 57.32 56.75 56.30 55.57 55.14 55.04 55.77 55.95 55.75 54.60 54.70 51.32
63.25 64.85 66.17 65.66 64.10 63.90 64.35 63.90 63.23 62.62 63.39 58.90 57.48 56.92 57.06 57.01 58.07 58.36 60.10 58.44 57.62 57.22 55.05 54.50 55.07 56.22 57.48 58.16 59.30 59.24 59.14 59.03 58.59 56.22 54.52 53.80 53.01 55.96 56.88 56.10 56.12 52.78 52.58
64.30 65.77 66.28 65.48 64.25 63.78 63.64 63.11 62.62 62.90 62.71 60.81 60.01 58.10 57.29 56.95 55.82 56.78 58.55 56.92 56.22 55.69 54.42 52.92 51.82 51.85 52.91 54.86 54.31 54.42 54.64 55.18 55.92 56.10 54.95 54.41 54.71 55.12 55.51 58.17 57.63 54.87 54.81
65.51 66.13 65.88 64.94 63.94 63.57 63.10 62.87 62.69 63.02 61.93 60.65 60.76 57.73 56.94 56.43 53.93 55.45 57.12 55.79 54.48 54.37 53.75 52.17 51.06 49.42 52.12 50.82 49.20 47.27 46.57 46.73 53.23 55.29 55.67 55.69 56.08 56.40 56.44 55.22 53.32 51.92 49.89
66.14 66.65 65.89 65.29 64.57 63.94 63.17 62.64 62.64 62.62 62.68 63.27 61.22 58.71 56.07 56.54 51.46 53.64 56.88 56.22 52.94 51.78 50.26 50.77 54.28 50.83 50.77 48.51 44.52 43.27 42.52 42.82 45.08 46.43 48.92 49.94 49.57 51.51 54.71 52.26 51.91 48.83 47.76
66.40 66.87 66.18 65.57 64.88 64.66 63.10 62.43 62.65 62.54 62.42 61.80 61.90 60.87 58.08 55.45 53.52 50.21 53.19 57.39 55.29 51.36 49.79 48.60 48.75 50.72 49.25 46.84 47.68 47.50 46.03 46.58 49.49 47.13 48.18 48.60 47.97 46.14 45.70 46.38 47.48 50.16 48.28
65.84 66.09 66.56 66.06 65.38 64.45 64.09 63.15 62.59 62.30 61.28 60.42 60.40 60.82 60.38 57.60 52.54 49.62 49.80 54.39 55.37 52.98 49.66 48.53 48.56 47.84 47.19 47.86 47.69 49.30 48.37 51.54 50.14 48.75 48.22 47.22 47.34 47.14 45.89 45.33 45.68 46.51 47.62
65.05 65.97 65.72 65.01 64.88 63.83 62.75 62.73 62.15 61.71 60.50 59.18 59.24 59.64 59.08 59.54 57.02 50.32 48.82 50.23 53.48 54.73 51.56 48.98 47.57 45.02 44.73 46.48 49.09 47.92 48.31 47.14 46.27 46.38 48.79 48.29 48.60 48.52 46.01 46.29 46.43 46.38 46.78
63.26 63.73 63.38 63.46 63.12 63.96 64.17 65.01 64.53 63.80 62.92 62.11 60.64 60.32 60.46 59.70 58.85 56.34 53.99 53.11 54.63 55.56 52.93 49.03 47.21 46.46 46.47 46.42 46.13 46.20 45.31 45.35 45.68 45.71 45.96 45.73 43.55 44.66 45.00 44.55 41.63 45.54 45.59
61.48 61.21 61.83 61.31 61.75 59.68 57.89 58.03 59.84 57.89 57.41 62.02 62.99 62.55 61.19 60.66 60.60 55.26 53.10 54.67 55.67 53.04 48.40 44.81 42.94 43.24 43.52 43.64 42.96 44.13 43.76 44.81 44.49 43.91 43.31 43.66 43.39 44.14 43.59 42.26 41.03 41.71 40.75
60.78 60.46 60.39 62.11 60.68 59.78 58.45 56.48 50.13 48.89 45.81 44.36 44.17 48.33 58.69 53.96 50.52 47.62 46.17 47.24 47.35 45.52 46.81 45.75 43.08 43.84 45.03 44.35 43.57 44.11 44.83 45.64 44.13 44.69 43.81 44.18 43.52 43.39 42.33 41.42 42.01 40.61 40.83
58.48 58.88 58.91 59.56 60.35 58.19 57.19 57.08 56.76 52.01 46.35 44.54 43.99 44.36 43.81 47.07 46.53 45.62 46.53 44.90 44.88 43.55 48.60 46.39 46.15 46.29 46.11 45.56 44.05 44.60 45.73 45.17 45.52 44.97 43.86 43.66 43.61 41.82 41.71 41.14 41.40 41.70 41.26
56.86 54.32 57.70 57.63 57.85 58.78 58.14 57.12 56.08 55.29 55.30 55.42 44.40 44.16 43.25 42.91 42.91 41.64 41.82 45.06 46.59 45.30 48.31 48.16 47.03 46.69 46.33 45.99 45.73 45.53 45.78 44.68 44.87 45.30 43.98 43.47 43.64 43.99 42.57 41.84 42.66 42.41 41.85
56.48 56.38 56.34 56.18 56.90 56.52 58.30 55.48 54.16 55.26 55.06 52.34 52.06 47.33 43.17 40.45 41.37 40.73 42.54 55.10 53.89 51.14 49.30 48.43 47.61 47.00 47.85 47.66 47.17 47.56 48.06 46.68 44.74 44.28 45.07 44.06 43.66 43.07 42.62 42.81 42.88 42.76 42.81
56.76 56.12 55.47 55.82 55.12 55.32 55.52 54.96 54.43 55.22 55.12 52.28 51.66 53.28 47.94 45.67 48.68 49.09 48.20 52.18 53.91 53.58 52.32 50.89 50.63 48.10 47.89 49.05 49.79 48.09 47.39 47.38 47.70 46.27 46.36 45.48 44.68 44.32 43.69 43.55 43.35 43.10 42.52
57.39 56.58 56.24 55.72 54.62 55.08 55.40 55.30 56.16 56.78 54.23 53.71 53.59 53.75 46.70 50.16 51.64 51.66 50.47 49.89 52.24 52.54 52.18 51.58 51.97 49.02 47.04 47.24 47.56 47.34 47.00 47.64 47.02 47.18 47.33 46.64 45.96 44.76 44.78 44.74 44.57 46.88 42.95
56.96 56.08 55.60 55.26 54.94 54.82 55.70 55.94 55.78 55.04 55.49 55.98 55.01 52.39 42.99 48.23 50.52 50.81 51.22 52.04 51.97 52.01 52.89 52.72 51.61 49.64 48.31 47.95 47.97 48.66 48.95 48.04 47.98 47.88 47.52 47.26 46.25 46.19 45.17 44.59 44.56 44.57 45.95
56.44 56.34 56.00 55.50 55.50 54.28 54.72 54.94 55.54 56.26 56.84 56.54 57.57 54.78 48.77 49.15 50.56 51.19 50.26 50.11 50.51 50.35 49.85 49.41 49.28 49.32 50.28 50.40 50.46 50.57 49.87 49.71 49.80 49.74 48.84 48.10 46.97 46.78 46.48 46.17 47.00 47.00 45.83
57.02 57.28 56.58 55.80 55.58 55.30 55.02 55.24 54.06 49.68 53.74 56.86 55.68 55.64 54.21 52.27 51.64 51.08 51.00 50.61 50.31 50.16 49.29 49.20 50.07 50.62 51.80 52.07 52.37 52.60 53.09 52.83 52.19 50.96 50.62 49.87 48.92 47.04 48.72 47.71 45.57 44.78 43.95
56.68 56.76 55.92 55.42 55.08 53.19 52.12 51.07 51.25 51.06 51.42 51.44 49.50 53.96 53.87 51.43 50.43 49.84 50.70 50.42 49.60 50.00 49.82 50.65 51.32 52.19 52.52 52.48 51.91 52.22 49.74 41.03 48.90 46.71 50.86 50.79 49.77 48.58 48.23 46.50 44.56 42.86 41.15
55.16 55.52 55.00 53.12 51.32 51.69 51.85 51.08 49.64 49.28 49.30 50.20 50.73 51.00 50.89 50.49 50.67 50.21 50.55 51.67 52.08 53.23 51.97 51.75 47.86 44.17 43.38 45.04 43.45 39.50 34.80 33.76 40.62 39.69 47.02 45.97 43.14 40.40 39.62 39.18 39.47 38.88 39.38
MSLP
1012.64 1013.42 1013.92 1013.91 1013.97 1013.85 1013.93 1014.12 1013.86 1014.30 1014.56 1014.67 1015.05 1015.30 1015.38 1015.56 1015.61 1015.61 1015.58 1015.51 1015.42 1015.37 1015.18 1014.91 1014.80 1014.49 1014.25 1014.43 1014.76 1015.24 1015.60 1016.04 1017.45 1018.81 1019.14 1019.58 1019.82 1019.90 1020.05 1020.20 1020.35 1020.40 1020.56
1012.56 1013.61 1014.24 1014.31 1014.06 1014.16 1014.10 1014.37 1014.29 1014.47 1014.42 1014.57 1014.99 1015.33 1015.63 1015.77 1015.89 1015.91 1015.85 1015.97 1015.96 1015.74 1015.60 1015.14 1015.17 1014.90 1015.00 1015.01 1015.28 1015.79 1016.13 1016.44 1017.18 1018.46 1019.48 1019.96 1020.26 1020.43 1020.49 1020.70 1020.92 1021.06 1021.07
1012.38 1013.38 1014.22 1014.15 1014.20 1014.37 1014.37 1014.38 1014.47 1014.52 1014.70 1015.09 1015.15 1015.34 1015.61 1015.87 1016.08 1016.10 1016.14 1016.33 1016.25 1015.98 1015.83 1015.55 1015.46 1015.35 1015.47 1015.59 1015.98 1016.41 1016.59 1016.96 1017.49 1018.37 1019.46 1020.06 1020.52 1020.75 1020.89 1021.07 1021.23 1021.28 1021.29
1012.85 1013.40 1014.14 1014.17 1014.10 1014.38 1014.61 1014.92 1015.09 1015.18 1015.20 1015.33 1015.30 1015.47 1015.67 1015.97 1016.36 1016.45 1016.49 1016.54 1016.42 1016.34 1016.09 1015.86 1015.75 1015.75 1015.82 1016.10 1016.45 1016.62 1016.81 1017.28 1017.93 1018.63 1019.49 1020.01 1020.44 1020.91 1020.99 1021.27 1021.63 1021.69 1021.91
1013.17 1013.45 1014.24 1014.39 1014.40 1014.31 1014.56 1015.07 1015.45 1015.85 1015.94 1015.88 1015.68 1015.75 1015.99 1015.98 1016.28 1016.58 1016.62 1016.83 1016.74 1016.70 1016.52 1016.28 1016.19 1016.13 1016.10 1016.32 1016.61 1016.98 1017.14 1017.60 1018.13 1018.64 1019.27 1019.86 1020.36 1020.85 1021.04 1021.19 1021.52 1021.74 1022.02
1013.20 1013.84 1014.42 1014.39 1014.79 1014.67 1014.78 1014.92 1015.04 1015.58 1016.08 1016.19 1016.24 1016.08 1016.22 1016.11 1016.21 1016.48 1016.65 1016.84 1017.01 1017.09 1017.08 1016.92 1016.72 1016.57 1016.47 1016.68 1016.91 1017.16 1017.36 1017.87 1018.33 1018.74 1019.27 1019.71 1020.18 1020.52 1020.76 1021.04 1021.34 1021.79 1022.18
1012.70 1013.41 1013.85 1014.10 1014.58 1014.80 1014.91 1015.05 1015.09 1015.52 1015.95 1016.38 1016.34 1016.33 1016.41 1016.36 1016.25 1016.43 1016.71 1016.98 1017.14 1017.36 1017.45 1017.40 1017.25 1017.21 1017.16 1017.20 1017.33 1017.48 1017.70 1017.98 1018.19 1018.36 1018.95 1019.45 1019.92 1020.08 1020.34 1020.78 1020.98 1021.26 1021.58
1012.48 1013.00 1013.40 1013.72 1014.11 1014.33 1014.96 1015.22 1015.14 1015.44 1015.87 1016.28 1016.66 1016.67 1016.74 1016.71 1016.40 1016.60 1016.86 1017.22 1017.60 1017.63 1017.64 1017.71 1017.62 1017.77 1017.74 1017.57 1017.78 1018.04 1018.25 1018.33 1018.39 1018.44 1018.70 1019.06 1019.40 1019.73 1019.96 1020.27 1020.58 1021.16 1021.50
1011.95 1012.54 1012.98 1013.04 1013.65 1014.10 1014.55 1014.89 1015.02 1015.32 1015.92 1015.94 1016.20 1016.48 1016.73 1016.81 1016.49 1016.65 1016.90 1017.37 1017.83 1017.85 1017.91 1017.91 1017.89 1018.08 1018.07 1018.10 1018.22 1018.72 1018.93 1018.91 1018.61 1018.62 1018.81 1018.92 1019.19 1019.48 1019.81 1020.25 1020.84 1021.31 1021.83
1011.38 1011.91 1012.18 1012.73 1013.35 1013.86 1014.17 1014.50 1014.54 1014.95 1015.34 1015.72 1016.07 1016.08 1016.19 1016.58 1016.72 1016.72 1016.88 1017.30 1017.97 1018.03 1018.11 1018.10 1017.98 1018.03 1018.17 1018.38 1018.54 1018.89 1019.17 1019.41 1019.20 1019.31 1019.48 1019.53 1019.68 1019.81 1019.87 1020.08 1020.45 1021.16 1021.64
1010.91 1011.51 1012.21 1012.85 1013.29 1013.30 1013.78 1013.88 1014.07 1014.50 1014.97 1015.41 1015.69 1015.76 1015.96 1016.09 1016.37 1016.66 1016.85 1017.13 1017.46 1017.76 1018.00 1018.21 1018.13 1018.19 1018.40 1018.66 1018.78 1019.00 1019.13 1019.33 1019.59 1019.68 1019.91 1020.05 1020.19 1020.32 1020.39 1020.42 1020.51 1020.72 1021.10
1010.78 1011.52 1012.06 1012.45 1013.29 1013.27 1013.11 1013.37 1013.99 1014.20 1014.82 1015.15 1015.42 1015.59 1015.58 1015.76 1015.99 1016.33 1016.52 1016.74 1017.01 1017.23 1017.59 1017.74 1017.95 1018.11 1018.32 1018.53 1018.80 1019.05 1019.22 1019.42 1019.70 1020.06 1020.28 1020.42 1020.52 1020.62 1020.59 1020.52 1020.55 1020.65 1020.62
1011.05 1011.49 1012.26 1012.28 1012.29 1013.02 1013.47 1013.70 1014.03 1014.45 1014.65 1014.83 1015.13 1015.21 1015.38 1015.53 1015.79 1015.85 1016.01 1016.22 1016.60 1016.91 1017.04 1017.28 1017.69 1018.08 1018.26 1018.37 1018.57 1018.91 1019.19 1019.51 1019.88 1020.25 1020.27 1020.33 1020.24 1020.25 1020.47 1020.51 1020.63 1020.74 1020.73
1011.13 1011.33 1011.66 1012.14 1012.47 1012.56 1013.22 1013.50 1013.69 1014.07 1014.36 1014.40 1014.66 1014.71 1014.99 1015.31 1015.50 1015.69 1015.91 1016.10 1016.29 1016.71 1016.86 1017.24 1017.52 1017.99 1018.22 1018.30 1018.52 1018.80 1018.99 1019.16 1019.38 1019.57 1019.85 1019.87 1020.03 1020.18 1020.39 1020.61 1020.78 1020.83 1020.99
1011.58 1011.81 1012.05 1011.94 1012.28 1012.89 1013.26 1014.05 1013.91 1013.99 1014.16 1014.22 1014.18 1014.23 1014.45 1014.54 1014.58 1014.90 1015.30 1015.76 1015.91 1016.15 1016.71 1017.35 1017.79 1018.10 1018.43 1018.58 1018.66 1018.65 1018.80 1018.93 1019.00 1019.07 1019.46 1019.71 1019.91 1020.13 1020.38 1020.50 1020.62 1021.00 1021.08
1012.01 1012.30 1012.54 1012.46 1013.02 1013.19 1013.53 1014.02 1014.36 1014.26 1014.16 1014.33 1014.38 1014.42 1014.14 1013.93 1014.07 1014.33 1014.58 1014.99 1015.48 1015.98 1016.51 1016.82 1017.21 1017.52 1017.77 1018.03 1018.30 1018.56 1018.66 1018.70 1018.80 1018.87 1019.07 1019.38 1019.80 1020.05 1020.18 1020.31 1020.49 1020.88 1020.99
1012.37 1012.33 1012.51 1012.85 1012.98 1013.36 1013.66 1014.18 1014.60 1014.17 1014.06 1014.18 1014.31 1014.24 1014.21 1013.98 1013.90 1013.86 1014.09 1014.48 1015.00 1015.80 1016.09 1016.24 1016.43 1016.74 1017.05 1017.44 1017.75 1018.06 1018.17 1018.17 1018.31 1018.65 1018.79 1019.02 1019.25 1019.56 1019.85 1020.06 1020.30 1020.58 1020.74
1012.40 1012.57 1012.71 1012.71 1013.26 1013.10 1013.72 1014.14 1014.27 1014.16 1013.91 1014.02 1014.14 1014.09 1014.02 1013.84 1013.75 1013.86 1014.08 1014.72 1015.39 1015.60 1015.47 1015.52 1015.81 1016.06 1016.34 1016.70 1017.05 1017.47 1017.63 1017.88 1018.07 1018.17 1018.55 1018.63 1018.81 1019.04 1019.51 1019.60 1019.75 1020.00 1020.18
1013.07 1012.91 1013.01 1013.12 1013.11 1013.02 1013.19 1013.44 1013.94 1013.98 1013.67 1013.64 1013.77 1013.85 1013.84 1013.90 1013.84 1013.99 1014.13 1013.91 1014.31 1014.78 1014.95 1015.02 1015.03 1015.31 1015.46 1015.85 1016.18 1016.52 1016.78 1017.06 1017.23 1017.53 1017.82 1018.09 1018.17 1018.57 1018.71 1018.78 1018.99 1019.21 1019.44
1012.97 1012.75 1013.03 1013.13 1012.97 1013.05 1013.58 1013.25 1013.47 1013.54 1013.18 1013.15 1013.20 1013.08 1013.45 1013.78 1013.81 1013.90 1013.95 1013.80 1013.78 1014.01 1014.18 1014.31 1014.46 1014.68 1014.62 1014.89 1015.26 1015.60 1016.02 1016.33 1016.53 1016.70 1016.86 1017.14 1017.34 1017.57 1017.83 1018.00 1018.27 1018.58 1018.80
1012.55 1012.74 1012.69 1012.94 1013.05 1013.42 1013.56 1013.50 1013.11 1012.85 1012.57 1012.46 1012.29 1012.15 1012.37 1012.79 1013.00 1013.14 1013.19 1013.16 1013.22 1013.29 1013.54 1013.67 1013.73 1013.83 1014.08 1014.10 1014.42 1014.77 1015.10 1015.32 1015.46 1015.55 1015.64 1015.99 1016.40 1016.90 1016.89 1017.04 1017.41 1017.66 1017.95
1012.50 1012.30 1012.51 1012.64 1012.90 1013.13 1013.08 1013.07 1012.77 1012.36 1011.92 1011.74 1011.43 1011.50 1011.79 1012.18 1012.18 1012.25 1012.35 1012.31 1012.51 1012.74 1012.92 1013.07 1013.17 1013.22 1013.31 1013.46 1013.55 1013.76 1013.91 1014.05 1014.15 1014.33 1014.56 1014.82 1015.22 1015.61 1015.92 1016.38 1016.62 1016.85 1017.11
1012.22 1012.20 1012.17 1012.27 1012.55 1012.73 1012.65 1012.83 1012.40 1011.97 1011.45 1011.12 1010.97 1011.02 1011.38 1011.47 1011.50 1011.49 1011.36 1011.49 1011.68 1011.90 1012.08 1012.35 1012.51 1012.47 1012.31 1012.32 1012.35 1012.38 1012.48 1012.43 1012.50 1012.74 1013.21 1013.73 1014.11 1014.55 1015.04 1015.48 1015.67 1016.08 1016.26
1011.57 1011.63 1011.83 1011.94 1012.04 1012.25 1012.32 1012.34 1012.03 1011.55 1011.00 1010.74 1010.85 1010.77 1010.67 1010.69 1010.87 1011.04 1011.15 1011.06 1011.11 1011.28 1011.41 1011.42 1011.40 1011.33 1011.23 1011.10 1011.05 1011.00 1010.93 1010.98 1011.12 1011.36 1011.57 1012.35 1012.88 1013.31 1013.74 1014.23 1014.61 1015.16 1015.78
1011.01 1011.20 1011.36 1011.47 1011.82 1011.77 1012.15 1011.97 1011.59 1011.65 1011.25 1011.01 1011.05 1010.85 1010.68 1010.69 1010.97 1011.06 1010.91 1010.72 1010.74 1010.84 1010.82 1010.96 1010.82 1010.46 1010.19 1009.92 1009.80 1009.71 1009.74 1009.90 1010.16 1010.16 1010.59 1011.16 1011.79 1012.27 1012.79 1013.38 1013.93 1014.46 1014.91
1010.66 1010.88 1011.11 1011.14 1011.76 1011.94 1012.45 1012.46 1012.21 1012.00 1011.98 1011.91 1011.82 1011.79 1011.78 1011.86 1011.84 1011.60 1011.56 1011.34 1011.11 1010.95 1011.01 1010.81 1010.76 1010.69 1010.17 1009.86 1009.67 1009.04 1009.14 1009.52 1009.73 1009.97 1010.35 1010.85 1011.52 1012.50 1013.26 1013.71 1013.98 1014.88 1014.72
Wind_Speed
7 4 5 5 4 4 4 3 6 5 6 6 7 5 5 5 4 4 4 4 5 4 4 4 5 4 3 3 4 3 4 4 6 3 2 4 4 6 6 6 6 6 6
7 6 5 5 6 4 5 4 5 4 4 7 7 6 6 5 5 5 5 5 5 5 4 5 5 4 6 5 4 5 5 3 4 8 2 2 4 4 6 6 4 4 4
8 7 5 6 6 6 5 5 5 6 6 5 6 6 6 5 5 5 5 5 5 5 4 5 5 5 5 5 5 5 5 5 6 6 3 2 2 2 4 4 4 4 4
6 7 6 5 6 6 4 3 4 3 5 5 5 5 5 6 5 5 5 5 5 5 5 5 5 5 6 5 5 6 7 7 8 7 4 3 2 2 2 3 3 2 3
6 6 6 4 5 6 6 6 4 2 2 4 5 5 4 5 4 5 5 5 5 6 6 6 5 7 9 6 4 5 6 6 6 6 4 2 2 2 3 3 2 2 1
7 5 4 5 5 5 6 6 6 6 4 4 4 5 5 3 5 7 6 5 4 5 5 6 5 7 9 10 10 9 7 6 6 4 2 3 3 3 3 3 3 3 2
7 7 7 7 7 6 5 5 5 6 5 3 4 5 5 4 8 9 8 4 4 3 3 3 4 4 6 6 9 9 9 6 4 5 5 4 4 5 5 4 3 2 3
9 8 7 7 7 6 6 6 5 4 5 6 4 3 2 2 7 10 9 6 4 3 3 3 4 3 3 6 6 6 5 4 3 3 5 5 3 5 5 2 3 3 3
10 9 9 7 8 7 7 7 4 5 4 6 5 6 6 4 6 11 9 6 4 4 2 3 4 5 4 5 7 7 6 4 7 8 6 6 5 6 5 5 3 3 1
10 10 8 8 8 9 8 8 5 4 5 5 5 6 8 6 5 9 7 5 5 3 1 0 4 5 7 7 7 6 7 2 4 5 4 6 7 6 4 2 5 4 2
7 6 6 6 9 9 7 6 6 6 5 6 7 5 6 7 7 9 9 5 5 4 4 3 3 4 7 7 7 5 5 6 5 6 4 3 3 3 2 2 2 3 3
5 6 9 9 6 5 10 5 3 5 5 5 5 4 4 5 8 9 9 8 7 5 5 4 5 8 8 9 7 6 9 6 4 4 2 1 2 1 2 1 2 2 1
5 8 8 6 6 4 3 4 3 4 4 5 4 4 4 4 4 9 10 8 10 6 4 6 8 8 7 5 8 9 9 4 4 3 4 4 3 2 2 1 2 1 1
3 4 4 5 4 4 3 4 4 5 5 5 6 6 5 4 5 4 4 4 6 5 5 4 5 5 4 4 3 5 4 5 5 4 4 3 1 3 3 3 2 1 2
5 2 2 3 5 4 4 2 1 2 1 2 5 5 6 8 8 9 10 7 5 6 6 3 2 3 3 2 2 3 3 3 4 4 4 4 3 2 2 2 2 1 2
4 1 2 3 2 2 3 1 1 0 1 4 7 5 4 7 7 15 15 11 10 12 2 4 5 5 5 5 5 4 3 5 4 4 3 4 4 5 4 3 2 2 3
4 4 3 2 3 2 1 2 4 2 5 4 5 5 8 9 8 13 14 13 13 10 4 4 5 7 6 5 5 5 5 5 4 4 4 5 4 4 4 4 3 3 3
1 2 2 2 2 3 3 4 3 3 3 2 2 0 3 6 6 7 8 11 4 3 4 7 6 6 6 6 5 5 4 4 5 5 5 5 5 4 4 4 4 4 4
2 2 2 2 3 4 3 4 4 4 4 4 2 3 2 4 4 6 12 5 6 7 7 7 6 5 6 6 5 5 6 5 5 5 5 5 6 5 5 5 5 7 6
5 7 5 3 2 3 4 4 4 5 4 4 4 4 3 2 2 3 4 4 5 6 6 6 6 7 6 7 6 5 5 5 7 8 8 7 6 5 6 6 5 5 6
4 4 5 3 3 4 4 5 5 5 4 4 5 5 10 5 5 5 5 6 7 6 6 6 6 7 6 6 6 6 6 6 7 9 9 8 7 6 6 5 5 6 4
5 5 4 4 3 4 5 5 5 5 6 6 5 5 11 5 4 5 5 6 6 6 5 5 6 6 6 7 7 7 8 8 8 8 9 9 8 8 6 5 5 5 6
4 5 5 4 4 5 4 5 5 6 7 7 6 4 4 6 6 7 6 6 6 6 5 6 7 6 7 7 7 8 9 9 10 10 10 10 9 9 7 7 8 7 6
5 6 5 4 3 4 4 5 5 6 7 6 4 5 5 6 5 5 5 4 4 5 5 6 7 11 9 9 8 9 10 9 9 10 15 11 10 9 8 7 5 5 4
4 4 4 4 5 3 3 2 1 3 4 4 5 4 3 1 2 3 4 3 3 3 4 4 5 9 13 16 12 14 14 12 13 12 9 11 10 11 10 7 6 2 1
3 3 4 3 2 1 3 3 5 5 5 6 7 8 8 7 6 5 4 4 4 4 4 4 5 8 9 6 7 0 3 6 6 7 6 7 9 7 5 5 7 4 2
Wind_Direction
141 134 130 145 146 119 108 134 130 143 163 134 120 114 85 70 58 64 55 39 52 29 14 44 34 26 62 99 107 103 102 91 114 83 75 42 55 74 70 66 69 70 77
131 142 144 157 147 141 132 138 141 135 120 115 123 110 100 88 68 67 63 45 53 50 22 55 46 51 53 54 73 82 100 96 119 129 103 86 66 60 79 81 69 61 81
134 138 153 162 161 159 155 153 142 128 118 115 124 124 115 101 90 78 81 74 55 59 43 57 51 64 66 76 79 87 86 94 106 128 112 101 100 86 81 70 78 64 75
139 141 170 178 150 139 140 120 113 111 124 128 124 128 136 141 124 103 91 78 65 50 48 55 57 71 89 95 98 107 113 110 117 116 105 108 108 117 98 123 108 87 87
140 145 181 170 157 149 136 139 119 80 104 139 123 114 130 141 146 132 111 94 83 65 44 42 50 79 98 109 122 118 113 121 129 129 123 119 115 133 165 166 127 142 102
141 166 174 150 172 180 161 167 155 138 163 160 154 147 143 130 151 159 141 127 94 77 62 40 40 55 70 95 109 123 125 135 131 124 109 136 136 156 149 156 132 154 159
158 176 182 169 179 192 177 177 161 161 161 183 176 159 159 157 147 137 129 140 142 130 116 79 53 42 77 83 85 104 117 108 118 134 147 154 151 180 148 153 173 139 159
178 182 183 172 181 175 178 186 162 148 156 163 199 181 172 193 143 144 120 119 110 119 123 124 110 97 89 105 95 81 76 80 133 146 153 168 184 158 157 159 156 123 78
185 188 190 171 175 173 184 179 164 145 168 176 179 176 184 206 159 145 127 127 127 119 130 139 128 133 137 109 106 103 86 53 59 84 99 121 134 151 150 119 128 114 108
191 193 180 178 177 185 187 184 165 164 173 177 195 187 187 186 206 170 145 140 148 151 83 120 160 158 153 144 128 132 114 126 103 80 52 57 63 71 141 216 157 146 145
188 176 178 187 197 195 188 177 172 174 173 184 199 195 197 186 185 201 173 166 171 171 173 199 215 187 177 166 142 144 157 149 125 120 116 92 67 66 77 85 133 142 144
174 173 197 196 210 195 198 167 182 168 186 196 196 205 211 191 183 204 203 198 178 171 192 191 203 194 182 182 169 169 152 136 136 133 126 172 184 188 216 143 125 129 170
174 205 228 195 172 167 130 159 159 182 186 200 202 225 217 196 200 201 204 211 200 192 178 192 178 193 191 167 185 175 157 157 157 164 198 205 202 168 129 46 31 61 36
180 197 192 133 130 134 163 186 186 198 207 211 203 212 215 196 205 190 204 207 212 214 154 163 164 167 178 178 148 171 186 197 189 189 190 199 166 151 175 158 157 122 117
106 103 77 107 119 113 86 33 24 65 34 255 231 221 207 218 220 196 181 194 200 184 127 111 137 150 184 193 206 187 193 188 173 164 160 170 164 157 199 175 127 118 147
93 78 88 93 82 99 111 104 291 205 268 247 271 238 289 266 214 190 194 188 161 146 132 175 181 189 189 191 191 194 192 201 203 183 166 170 180 188 181 167 129 163 173
145 125 114 138 140 121 116 231 268 272 234 249 262 261 244 259 245 204 203 184 163 155 197 187 195 193 201 193 189 188 200 200 175 196 183 186 177 172 159 180 171 169 207
126 158 147 138 217 169 199 232 238 243 266 282 202 299 323 319 283 231 156 123 125 235 211 193 203 200 203 196 189 197 206 197 202 191 199 193 189 169 175 194 186 188 202
247 255 245 211 221 229 218 206 235 246 237 248 237 216 126 56 73 143 166 192 188 199 208 216 203 198 201 201 200 200 202 201 201 184 200 199 194 177 203 200 191 194 174
228 236 227 240 251 256 253 225 225 236 239 229 238 241 160 164 208 190 197 219 204 205 202 208 218 226 206 200 205 201 206 210 215 210 209 203 202 188 201 198 195 189 198
216 240 227 226 238 247 240 240 241 238 239 235 234 214 191 189 209 206 201 202 210 217 209 211 223 223 213 205 210 204 205 217 211 213 206 204 197 197 212 201 200 203 192
220 215 221 226 222 240 241 250 249 245 244 245 241 221 195 211 211 205 214 214 215 229 230 223 228 218 213 214 211 214 218 217 211 208 209 207 198 206 197 197 198 201 205
229 228 231 229 234 252 262 257 254 251 255 245 244 211 183 215 224 226 206 207 207 209 203 207 225 230 221 221 214 212 215 217 212 203 207 210 204 208 198 206 210 213 198
220 222 230 230 246 245 246 257 271 278 270 265 245 229 216 215 222 232 231 217 219 221 212 217 222 228 234 228 223 222 222 228 215 211 204 208 206 202 202 200 184 162 144
241 231 207 214 235 223 247 242 320 350 6 359 335 323 327 210 219 238 236 246 255 271 263 265 258 248 240 235 226 225 227 230 222 211 201 204 208 195 190 181 159 142 173
286 224 205 149 147 28 347 10 35 34 29 32 37 40 43 42 38 41 25 35 41 52 39 43 33 15 2 343 331 25 135 157 146 150 143 135 128 113 91 57 58 5 230